星链-5060 (STARLINK-5060 )

导读 | 星芒AI

STARLINK-5060 是 SpaceX Starlink 项目中的一颗低轨通信卫星,属于第 11 批部署的星链卫星群。该卫星运行在约 550 公里的高度,旨在为全球用户提供高速互联网服务。作为 Starlink 网络的一部分,它与其他卫星协同工作,提升网络覆盖与连接稳定性。该系统特别关注偏远地区,改善其网络基础设施。STARLINK-5060 采用先进推进和通信技术,支持自动避碰功能,以确保轨道安全。其部署是 SpaceX 扩大全球互联网接入计划的重要一环。

基本信息
目录编号:
55413
目录名称:
STARLINK-5060
国际标识:
2023-014Y
轨道中心:
EARTH
卫星名称:
星链-5060
卫星全名:
星链-5060 (STARLINK-5060 )
卫星状态:
在轨 (已飞行1008 天)
发射日期:
2023-01-31 UTC
国别 :
美国 (US)
星等 :
--
轨道信息
数据来源 国际轨道数据
星历时间: 2025-11-04T19:49:34+0800
11小时前
查看轨道信息
半长轴: 6950.206km
偏心率: 0.0002542
轨道倾角: 70.001°
近地点辐角 261.076°
升交点赤经 39.931°
平近点角 99.011°
近地点: 570.304km
远地点: 573.838km
周期: 96.107分钟
每日圈数: 14.983259
详细信息
固有亮度:
5
最大亮度:
2.5
卫星平台:
Starlink v1.5
覆盖范围:
全球
运营商:
太空探索技术公司
运营商所在国:
美国
制造商(研发单位):
太空探索技术公司
制造商所在国:
美国
使用方式:
暂无
卫星简介
星链(Starlink)计划是由太空探索技术公司(SpaceX)提出的一个巨型低轨卫星互联网星座项目,计划在2019年至2024年间在太空搭建由约1.2万颗卫星组成的“星链”网络,其中1584颗将部署在地球上空550千米处的近地轨道,并从2020年开始工作。该卫星仍在工作。
2D轨道图
3D轨道图
轨道高度分析图
轨道倾角分析图
轨道综合分析图
查看轨道综合分析图